Notices

What's New in latest Release from April 7th, 2021:

- Updated Glossary, including Speed of Maximum Gust, and Total Hourly Precipitation

- Updated national and regional climate services offices contacts and prices information

- Addition of station inventory lists for 1981-2010, 1971-2000, and 1961-1990 Normals.

Please note that as of June 10, 2021 UTC dates are available for all years 2004-present, and DBA is working on populating the remaining years (2003 to 1953).

If you haven't already, please take our survey and provide feedback about our website: https://eccc.sondage-survey.ca/f/LanguageSelection.aspx?s=442ca660-fcf1-47c0-95a9-59707d6fd709

Hourly Data Report for November 26, 2017

CARBERRY CS
MANITOBA

49°54'20.900" N
99°21'26.800" W
383.50 m
5010547
71170
WZE

Download Data

Hourly Data (November 2017)
Hourly Data Report for November 26, 2017
TIME
LST
Temp Definition
°C
Dew Point Definition
°C
Rel Hum Definition
%
Precip. Amount Definition
mm

Wind Dir Definition
10's deg

Wind Spd Definition
km/h
Visibility Definition
km
Stn Press Definition
kPa
Hmdx Definition


Wind Chill Definition


Weather Definition


00:00 0.0 -2.3 84 0.0 26 28   96.55   -6 LegendNANA
01:00 -0.6 -2.7 86 0.0 27 24   96.65   -7 LegendNANA
02:00 -3.0 -4.6 89 0.0 27 17   96.75   -9 LegendNANA
03:00 -3.6 -4.9 91 0.0 24 6   96.92   -6 LegendNANA
04:00 -5.2 -6.3 92 0.0 32 2   96.96   -6 LegendNANA
05:00 -6.6 -7.4 94 0.0 3 4   97.03   -9 LegendNANA
06:00 -3.8 -5.2 90 0.0 4 8   97.08   -7 LegendNANA
07:00 -3.7 -5.7 87 0.0 2 15   97.13   -9 LegendNANA
08:00 -4.1 -6.2 85 0.0 1 16   97.22   -10 LegendNANA
09:00 -5.1 -7.6 83 0.0 2 19   97.27   -12 LegendNANA
10:00 -5.8 -8.1 84 0.0 2 15   97.30   -12 LegendNANA
11:00 -7.3 -9.5 84 0.0 4 16   97.31   -14 LegendNANA
12:00 -7.5 -9.9 83 0.0 4 11   97.31   -13 LegendNANA
13:00 -7.6 -10.0 83 0.0 6 11   97.28   -13 LegendNANA
14:00 -7.5 -9.7 84 0.0 7 16   97.16   -14 LegendNANA
15:00 -7.4 -9.8 83 0.0 8 13   97.11   -13 LegendNANA
16:00 -7.3 -9.5 84 0.0 7 15   97.06   -13 LegendNANA
17:00 -7.6 -9.8 84 0.0 7 16   97.03   -14 LegendNANA
18:00 -7.5 -9.3 87 0.0 9 13   96.98   -13 LegendNANA
19:00 -7.6 -9.2 88 0.0 8 14   96.84   -14 LegendNANA
20:00 -7.1 -8.7 89 0.0 9 16   96.75   -13 LegendNANA
21:00 -7.1 -9.1 86 0.0 10 18   96.68   -14 LegendNANA
22:00 -7.1 -9.3 84 0.0 9 20   96.53   -14 LegendNANA
23:00 -7.1 -9.1 86 0.0 10 20   96.34   -14 LegendNANA

Notes on Data Quality.

Legend

  • E = Estimated
  • M = Missing
  • NA = Not Available*
  • [empty] = Indicates an unobserved value
Date modified: